Murphy's Hourly Summary for Friday, March 17, 2017
Hour Temp
(f)
RH
(%)
Solar Rad.
(MJ/m2)
Rainfall
(in)
Wind
(mph)
3/17/2017 12:00 AM 64 81 0 0 6.32
3/17/2017 1:00 AM 64 84 0 0 5.73
3/17/2017 2:00 AM 63 87 0 0 4.97
3/17/2017 3:00 AM 64 84 0 0 6.74
3/17/2017 4:00 AM 66 81 0 0 8.25
3/17/2017 5:00 AM 66 79 0 0 8.72
3/17/2017 6:00 AM 67 78 0 0 7.59
3/17/2017 7:00 AM 67 76 0 0 7.63
3/17/2017 8:00 AM 67 75 0.01 0 7.34
3/17/2017 9:00 AM 67 74 0.2 0 8.86
3/17/2017 10:00 AM 68 74 0.57 0 8.65
3/17/2017 11:00 AM 69 73 0.72 0 8.65
3/17/2017 12:00 PM 70 72 1 0 9.54
3/17/2017 1:00 PM 71 69 0.88 0 8.72
3/17/2017 2:00 PM 71 68 0.81 0 7.68
3/17/2017 3:00 PM 72 66 1.47 0 8.24
3/17/2017 4:00 PM 73 66 1.29 0 8.06
3/17/2017 5:00 PM 74 63 0.9 0 7.89
3/17/2017 6:00 PM 74 63 0.52 0 7.25
3/17/2017 7:00 PM 74 60 0.26 0 5.29
3/17/2017 8:00 PM 74 59 0.01 0 2.69
3/17/2017 9:00 PM 73 64 0 0 0.38
3/17/2017 10:00 PM 73 65 0 0 0.36
3/17/2017 11:00 PM 72 66 0 0 0.42
Data Summary 69 71 8.64 0.00 6.50